Standard Bourdon tube pressure gauges for refrigeration engineering type D7 with glycerine filling

Versions


housing ∅ Connection alignment Housing accuracy class Range Type DG PG Part no. Price (€) Note
63 mm 7/16-20 UNF bottom Stainless steel 304 EN 837-1/6 -1/+9 bar RF63KTGly D701 M 2 85130701 26.78
63 mm 7/16-20 UNF bottom Stainless steel 304 EN 837-1/6 -1/+12.5 bar RF63KTGly D701 M 85131701 26.78
63 mm 7/16-20 UNF bottom Stainless steel 304 EN 837-1/6 -1/+15 bar RF63KTGly D701 M 85132701 26.78
63 mm 7/16-20 UNF bottom Stainless steel 304 EN 837-1/6 -1/+24 bar RF63KTGly D701 M 85133701 26.78
63 mm 7/16-20 UNF bottom Stainless steel 304 EN 837-1/6 -1/+30 bar RF63KTGly D701 M 85134701 26.78

Blue part no. = in-stock items

housing ∅ Connection alignment Housing accuracy class Range Type DG Part no. Price (€) Note
63 mm 7/16-20 UNF centre back Stainless steel 304 EN 837-1/6 -1/+9 bar RF63KTGly D711 M 85130711 27.50
63 mm 7/16-20 UNF centre back Stainless steel 304 EN 837-1/6 -1/+12.5 bar RF63KTGly D711 M 85131711 27.50
63 mm 7/16-20 UNF centre back Stainless steel 304 EN 837-1/6 -1/+15 bar RF63KTGly D711 M 85132711 27.50
63 mm 7/16-20 UNF centre back Stainless steel 304 EN 837-1/6 -1/+24 bar RF63KTGly D711 M 85133711 27.50
63 mm 7/16-20 UNF centre back Stainless steel 304 EN 837-1/6 -1/+30 bar RF63KTGly D711 M 85134711 27.50

Blue part no. = in-stock items

housing ∅ Connection alignment Housing accuracy class Range Type DG Part no. Price (€) Note
80 mm 7/16-20 UNF bottom Stainless steel 304 EN 837-1/6 -1/+9 bar RF80KTGly D701 M 85180701 58.21
80 mm 7/16-20 UNF bottom Stainless steel 304 EN 837-1/6 -1/+12.5 bar RF80KTGly D701 M 85181701 58.21
80 mm 7/16-20 UNF bottom Stainless steel 304 EN 837-1/6 -1/+15 bar RF80KTGly D701 M 85182701 58.21
80 mm 7/16-20 UNF bottom Stainless steel 304 EN 837-1/6 -1/+24 bar RF80KTGly D701 M 85183701 58.21
80 mm 7/16-20 UNF bottom Stainless steel 304 EN 837-1/6 -1/+30 bar RF80KTGly D701 M 85184701 58.21

Blue part no. = in-stock items

housing ∅ Connection alignment Housing accuracy class Range Type DG Part no. Price (€) Note
80 mm 7/16-20 UNF centre back Stainless steel 304 EN 837-1/6 -1/+9 bar RF80KTGly D711 M 85180711 61.32
80 mm 7/16-20 UNF centre back Stainless steel 304 EN 837-1/6 -1/+12.5 bar RF80KTGly D711 M 85181711 61.32
80 mm 7/16-20 UNF centre back Stainless steel 304 EN 837-1/6 -1/+15 bar RF80KTGly D711 M 85182711 61.32
80 mm 7/16-20 UNF centre back Stainless steel 304 EN 837-1/6 -1/+24 bar RF80KTGly D711 M 85183711 61.32
80 mm 7/16-20 UNF centre back Stainless steel 304 EN 837-1/6 -1/+30 bar RF80KTGly D711 M 85184711 61.32

Blue part no. = in-stock items

housing ∅ Connection alignment Housing accuracy class Range Type DG Part no. Price (€) Note
100 mm 7/16-20 UNF bottom Stainless steel 304 EN 837-1/6 -1/+9 bar RF100KTGly D701 M 85230701 59.66
100 mm 7/16-20 UNF bottom Stainless steel 304 EN 837-1/6 -1/+12.5 bar RF100KTGly D701 M 85231701 59.66
100 mm 7/16-20 UNF bottom Stainless steel 304 EN 837-1/6 -1/+15 bar RF100KTGly D701 M 85232701 59.66
100 mm 7/16-20 UNF bottom Stainless steel 304 EN 837-1/6 -1/+24 bar RF100KTGly D701 M 85233701 59.66
100 mm 7/16-20 UNF bottom Stainless steel 304 EN 837-1/6 -1/+30 bar RF100KTGly D701 M 85234701 59.66

Blue part no. = in-stock items

housing ∅ Connection alignment Housing accuracy class Range Type DG Part no. Price (€) Note
100 mm 7/16-20 UNF centre back Stainless steel 304 EN 837-1/6 -1/+9 bar RF100KTGly D711 M 85230711 62.56
100 mm 7/16-20 UNF centre back Stainless steel 304 EN 837-1/6 -1/+12.5 bar RF100KTGly D711 M 85231711 62.56
100 mm 7/16-20 UNF centre back Stainless steel 304 EN 837-1/6 -1/+15 bar RF100KTGly D711 M 85232711 62.56
100 mm 7/16-20 UNF centre back Stainless steel 304 EN 837-1/6 -1/+24 bar RF100KTGly D711 M 85233711 62.56
100 mm 7/16-20 UNF centre back Stainless steel 304 EN 837-1/6 -1/+30 bar RF100KTGly D711 M 85234711 62.56

Blue part no. = in-stock items

Description Format Language Download / Link
Data sheet Standard Bourdon tube pressure gauges for refrigeration engineering type D7 with glycerine filling Catalog page PDF
Afriso Data sheet Standard Bourdon tube pressure gauges for refrigeration engineering type D7 with glycerine filling
Enquiry pressure gauges Pressure measuring instruments PDF
Afriso Enquiry pressure gauges
Dials for pressure gauges – graduation Pressure measuring instruments PDF
Afriso Dials for pressure gauges – graduation
Temperature scales for refrigerant: Dew point temperature - examples range -1/+24 bar Pressure measuring instruments PDF
Afriso Temperature scales for refrigerant: Dew point temperature - examples range -1/+24 bar
DNV-GL Type approval Products PDF
Afriso DNV-GL Type approval